Location: LC-39B
(28.6273°N, 80.6211°W)
Time: 12:13:59
(UTC+00:00)

ISS - Visible Passes

Search period start: 01 October 2014 00:00
Search period end: 11 October 2014 00:00
Orbit: 413 x 416 km, 51.6° (Epoch: 01 October)

Date Brightness Start Highest point End Pass type
(mag) Time Alt. Az. Time Alt. Az. Time Alt. Az.
01 Oct -0.9 09:38:22 15° N 09:39:59 21° NE 09:42:35 10° E visible
02 Oct -3.0 10:25:08 16° WNW 10:27:35 48° SW 10:30:47 10° SSE visible
03 Oct -2.7 09:39:06 54° ESE 09:39:06 54° ESE 09:41:48 10° SE visible
04 Oct -1.9 00:35:50 10° SSW 00:37:45 30° SSW 00:37:45 30° SSW visible
04 Oct -1.2 10:26:06 13° SW 10:26:06 13° SW 10:27:22 10° SSW visible
04 Oct -2.1 23:47:13 10° S 23:50:01 25° SE 23:51:37 17° E visible
05 Oct 0.2 01:24:10 10° W 01:24:33 12° W 01:24:33 12° W visible
06 Oct -1.9 00:34:17 10° WSW 00:37:22 36° NW 00:38:13 30° N visible
06 Oct -3.2 23:44:49 10° SW 23:48:08 78° NW 23:51:27 10° NE visible
08 Oct -0.4 00:34:09 10° WNW 00:35:47 13° NW 00:37:25 10° N visible
08 Oct -1.0 23:43:41 10° W 23:46:22 22° NW 23:49:03 10° NNE visible
